CW9244 Weather Reports


Display with metric or nautical units.
time (UTC)temp
F
wind
direction
speed
MPH
gust
MPH
rain 1hr
in
rain 24hr
in
rain mn
in
humidity
%
barometer
mb
20200807131921 70 93 0.0 0.0 0.00 0.00 0.00 89 1017.9
20200807131024 70 86 2.0 0.0 0.00 0.00 0.00 89 1018.2
20200807130023 70 334 1.0 0.0 0.00 0.00 0.00 89 1018.5
20200807125120 70 337 0.0 0.0 0.00 0.00 0.00 88 1018.5
20200807124122 70 350 1.0 0.0 0.00 0.00 0.00 87 1018.5
20200807123123 70 81 1.0 0.0 0.00 0.00 0.00 86 1018.2
20200807122223 69 180 0.0 0.0 0.00 0.00 0.00 84 1018.2
20200807121322 69 337 0.0 0.0 0.00 0.00 0.00 85 1018.2
20200807120326 69 90 0.0 0.0 0.00 0.00 0.00 84 1018.2
20200807115423 69 90 0.0 0.0 0.00 0.00 0.00 84 1017.9
20200807114522 69 90 0.0 0.0 0.00 0.00 0.00 85 1017.9
20200807113623 69 90 0.0 0.0 0.00 0.00 0.00 84 1017.9
20200807112721 69 90 0.0 0.0 0.00 0.00 0.00 83 1017.9
20200807110821 68 90 0.0 0.0 0.00 0.00 0.00 84 1017.5
20200807105921 68 90 0.0 0.0 0.00 0.00 0.00 84 1017.5
20200807104921 68 90 0.0 0.0 0.00 0.00 0.00 86 1017.9
20200807104022 67 90 0.0 0.0 0.00 0.00 0.00 87 1017.5
20200807103023 67 90 0.0 0.0 0.00 0.00 0.00 89 1017.2
20200807102122 67 90 0.0 0.0 0.00 0.00 0.00 89 1017.2
20200807101121 67 90 0.0 0.0 0.00 0.00 0.00 89 1016.8
20200807100224 67 90 0.0 0.0 0.00 0.00 0.00 89 1016.8
20200807095320 67 90 0.0 0.0 0.00 0.00 0.00 88 1016.5
20200807094322 67 90 0.0 0.0 0.00 0.00 0.00 89 1016.5
20200807093421 67 90 0.0 0.0 0.00 0.00 0.00 88 1016.5
20200807092422 67 90 0.0 0.0 0.00 0.00 0.00 89 1016.8
20200807091426 67 90 0.0 0.0 0.00 0.00 0.00 88 1016.5
20200807090521 67 90 0.0 0.0 0.00 0.00 0.00 89 1016.5
20200807085522 67 90 0.0 0.0 0.00 0.00 0.00 88 1016.2
20200807084521 67 90 0.0 0.0 0.00 0.00 0.00 88 1016.2
20200807083622 67 90 0.0 0.0 0.00 0.00 0.00 88 1016.2
20200807082622 67 90 0.0 0.0 0.00 0.00 0.00 89 1016.5
20200807081721 67 90 0.0 0.0 0.00 0.00 0.00 89 1016.5
20200807080823 67 90 0.0 0.0 0.00 0.00 0.00 88 1016.5
20200807075822 66 90 0.0 0.0 0.00 0.00 0.00 88 1016.5
20200807074821 66 90 0.0 0.0 0.00 0.00 0.00 88 1016.2
20200807073824 66 90 0.0 0.0 0.00 0.00 0.00 89 1016.2
20200807072923 66 90 0.0 0.0 0.00 0.00 0.00 89 1016.5
20200807072026 66 90 0.0 0.0 0.00 0.00 0.00 89 1016.2
20200807071024 66 90 0.0 0.0 0.00 0.00 0.00 90 1016.2
20200807070024 66 90 0.0 0.0 0.00 0.00 0.00 90 1016.5
20200807065121 67 90 0.0 0.0 0.00 0.00 0.00 89 1016.2
20200807064221 67 90 0.0 0.0 0.00 0.00 0.00 91 1016.2
20200807063321 67 90 0.0 0.0 0.00 0.00 0.00 91 1016.2
20200807062324 66 90 0.0 0.0 0.00 0.00 0.00 90 1016.2
20200807061422 66 90 0.0 0.0 0.00 0.00 0.00 90 1016.5
20200807060422 66 90 0.0 0.0 0.00 0.00 0.00 89 1016.5
20200807055520 67 90 0.0 0.0 0.00 0.00 0.00 89 1016.5
20200807054620 67 90 0.0 0.0 0.00 0.00 0.00 89 1016.5
20200807053621 67 90 0.0 0.0 0.00 0.00 0.00 89 1016.8
20200807052623 67 90 0.0 0.0 0.00 0.00 0.00 88 1016.8
20200807051723 67 90 0.0 0.0 0.00 0.00 0.00 88 1016.8
20200807050723 67 90 0.0 0.0 0.00 0.00 0.00 88 1016.8
20200807045724 67 90 0.0 0.0 0.00 0.00 0.00 88 1016.8
20200807044822 67 90 0.0 0.0 0.00 0.00 0.00 87 1016.8
20200807043922 67 90 0.0 0.0 0.00 0.00 0.00 87 1016.8
20200807043021 67 90 0.0 0.0 0.00 0.00 0.00 87 1017.2
20200807042025 67 90 0.0 0.0 0.00 0.00 0.00 85 1016.8
20200807041122 67 90 0.0 0.0 0.00 0.00 0.00 85 1016.8
20200807040122 67 270 0.0 0.0 0.00 0.00 0.00 85 1016.8
20200807035110 67 90 0.0 0.0 0.00 0.00 0.00 83 1016.8
20200807034110 68 90 0.0 0.0 0.00 0.00 0.00 83 1016.8
20200807033212 68 90 0.0 0.0 0.00 0.00 0.00 82 1016.8
20200807032211 68 90 0.0 0.0 0.00 0.00 0.00 80 1016.8
20200807031212 68 90 0.0 0.0 0.00 0.00 0.00 80 1016.8
20200807030213 68 90 0.0 0.0 0.00 0.00 0.00 80 1016.5
20200807025312 68 90 0.0 0.0 0.00 0.00 0.00 80 1016.5
20200807024410 68 90 0.0 0.0 0.00 0.00 0.00 80 1016.8
20200807023414 69 90 0.0 0.0 0.00 0.00 0.00 79 1016.8
20200807022412 69 90 0.0 0.0 0.00 0.00 0.00 79 1016.8
20200807021511 69 90 0.0 0.0 0.00 0.00 0.00 79 1016.8
20200807020610 69 90 0.0 0.0 0.00 0.00 0.00 77 1017.2
20200807015711 69 90 0.0 0.0 0.00 0.00 0.00 75 1017.2
20200807014711 69 90 0.0 0.0 0.00 0.00 0.00 75 1017.2
20200807013812 69 90 0.0 0.0 0.00 0.00 0.00 73 1017.2
20200807012809 70 90 0.0 0.0 0.00 0.00 0.00 72 1017.2
20200807011811 70 90 0.0 0.0 0.00 0.00 0.00 69 1017.2
20200807010910 70 90 0.0 0.0 0.00 0.00 0.00 66 1017.2
20200807005910 71 90 0.0 0.0 0.00 0.00 0.00 66 1016.8
20200807005014 71 90 0.0 0.0 0.00 0.00 0.00 65 1016.5
20200807004111 71 90 0.0 0.0 0.00 0.00 0.00 64 1016.5
20200807003112 72 90 0.0 0.0 0.00 0.00 0.00 61 1016.5
20200807002114 72 90 0.0 0.0 0.00 0.00 0.00 61 1016.5
20200807001212 73 90 0.0 0.0 0.00 0.00 0.00 61 1016.5
20200807000213 74 90 0.0 0.0 0.00 0.00 0.00 60 1016.2
20200806235310 74 90 0.0 0.0 0.00 0.00 0.00 59 1016.2
20200806234411 75 90 0.0 0.0 0.00 0.00 0.00 59 1016.5
20200806233414 75 90 0.0 0.0 0.00 0.00 0.00 58 1016.5
20200806232413 76 90 0.0 0.0 0.00 0.00 0.00 57 1016.5
20200806231515 76 90 0.0 0.0 0.00 0.00 0.00 57 1016.2
20200806230509 77 90 0.0 0.0 0.00 0.00 0.00 56 1016.2
20200806225537 77 90 0.0 0.0 0.00 0.00 0.00 55 1016.2
20200806224628 77 90 0.0 0.0 0.00 0.00 0.00 53 1016.2
20200806223622 77 90 0.0 0.0 0.00 0.00 0.00 53 1015.8
20200806222722 77 90 0.0 0.0 0.00 0.00 0.00 53 1015.8
20200806221710 78 90 0.0 0.0 0.00 0.00 0.00 54 1015.8
20200806220745 78 90 0.0 0.0 0.00 0.00 0.00 56 1016.2
20200806215810 78 90 0.0 0.0 0.00 0.00 0.00 57 1015.8
20200806214811 78 90 0.0 0.0 0.00 0.00 0.00 58 1016.2
20200806213827 78 90 0.0 0.0 0.00 0.00 0.00 61 1015.8
20200806212913 78 90 2.0 0.0 0.00 0.00 0.00 60 1016.2
20200806211933 79 90 0.0 0.0 0.00 0.00 0.00 61 1016.2
20200806211034 79 90 0.0 0.0 0.00 0.00 0.00 62 1015.8
20200806210110 79 90 0.0 0.0 0.00 0.00 0.00 61 1015.8
20200806205209 79 90 0.0 0.0 0.00 0.00 0.00 62 1016.2
20200806204255 79 90 0.0 0.0 0.00 0.00 0.00 63 1015.8
20200806203342 78 90 1.0 0.0 0.00 0.00 0.00 63 1015.8
20200806202357 78 90 0.0 0.0 0.00 0.00 0.00 61 1015.8
20200806201433 80 90 2.0 0.0 0.00 0.00 0.00 56 1015.8
20200806200412 83 90 0.0 0.0 0.00 0.00 0.00 53 1015.8
20200806195428 84 90 0.0 0.0 0.00 0.00 0.00 50 1015.8
20200806194523 84 90 0.0 0.0 0.00 0.00 0.00 51 1016.2
20200806193516 85 90 2.0 0.0 0.00 0.00 0.00 47 1016.2
20200806192513 85 90 0.0 0.0 0.00 0.00 0.00 46 1016.2
20200806191609 86 90 0.0 0.0 0.00 0.00 0.00 47 1016.2
20200806190622 85 90 0.0 0.0 0.00 0.00 0.00 51 1016.5